Date String (YYYY-MM-DD hh:mm:ss) UTC,Instrument flags,absolute air pressure of the measurement (hPa),sample flow rate (lpm),inlet stack bypass flow (lpm),air temperature of the measurement (°C),ambient temperature measured by the external sensor (°C),aerosol sample conditioner tube jacket temperature (°C),OPC LED temperature (°C),internal box temperature (°C),relative humidity of the measurement (%),span deviation,mass concentration of particles derived from Lorenz-Mie calculation of OPC scattering (μg/m³),mass concentration of particles derived from Lorenz-Mie calculation of OPC scattering (μg/m³),mass concentration of particles derived from Lorenz-Mie calculation of OPC scattering (μg/m³)
DateTimeUTC,F1_M11,P_M11,Q1_M11,Q2_M11,T1_M11,T2_M11,T3_M11,T4_M11,T5_M11,U1_M11,ZSPAN_M11,X2_M11,X0_M11,X1_M11
2023-06-29 01:00:00,SystemResetWarning,0828.0,5.00,000.00,031.5,026.0,000.0,039.0,031.0,31.0,-000.5,0009.91,0022.87,0007.76
2023-06-29 01:01:00,SystemResetWarning,0828.1,5.00,000.00,031.5,026.4,000.0,039.1,031.1,31.3,-000.7,0009.91,0022.44,0007.75
2023-06-29 01:02:00,SystemResetWarning,0828.1,5.00,000.00,031.5,026.9,000.0,039.1,031.2,32.7,-000.3,0009.93,0022.47,0007.73
2023-06-29 01:03:00,SystemResetWarning,0828.1,5.00,000.00,031.4,027.2,000.0,039.2,031.3,32.5,0000.1,0009.95,0022.18,0007.74
2023-06-29 01:04:00,SystemResetWarning,0828.0,4.99,000.00,031.4,027.6,000.0,039.2,031.4,32.9,0000.3,0009.86,0021.99,0007.74
2023-06-29 01:05:00,SystemResetWarning,0828.0,4.99,000.00,031.4,027.8,000.0,039.2,031.4,32.5,0000.0,0009.82,0021.41,0007.75
2023-06-29 01:06:00,SystemResetWarning,0828.0,4.99,000.00,031.4,027.4,000.0,039.2,031.4,31.5,0000.6,0009.83,0021.79,0007.77
2023-06-29 01:07:00,SystemResetWarning,0828.1,5.00,000.00,031.4,025.9,000.0,039.1,031.3,30.6,0000.8,0009.84,0021.53,0007.77
2023-06-29 01:08:00,SystemResetWarning,0828.0,5.00,000.00,031.3,025.2,000.0,039.0,031.1,30.9,0001.2,0009.88,0021.84,0007.78
2023-06-29 01:09:00,SystemResetWarning,0827.8,5.01,000.00,031.2,025.3,000.0,039.0,030.9,31.9,0001.3,0009.84,0022.06,0007.78
2023-06-29 01:10:00,SystemResetWarning,0827.8,5.02,000.00,031.0,025.6,000.0,039.0,030.8,32.0,0001.3,0009.81,0022.66,0007.79
2023-06-29 01:11:00,SystemResetWarning,0827.8,5.00,000.00,030.9,026.1,000.0,039.0,030.9,33.5,0001.4,0009.81,0022.75,0007.80
2023-06-29 01:12:00,SystemResetWarning,0827.8,5.00,000.00,030.9,026.5,000.0,039.0,031.0,33.7,0000.9,0009.81,0022.13,0007.81
2023-06-29 01:13:00,SystemResetWarning,0827.9,5.01,000.00,030.8,027.0,000.0,039.0,031.1,33.8,0001.2,0009.80,0021.94,0007.82
2023-06-29 01:14:00,SystemResetWarning,0828.0,4.99,000.00,030.8,027.3,000.0,039.0,031.2,33.6,0001.0,0009.75,0021.48,0007.80
2023-06-29 01:15:00,SystemResetWarning,0828.0,4.98,000.00,030.8,027.6,000.0,039.0,031.3,34.8,0000.8,0009.81,0021.36,0007.79
2023-06-29 01:16:00,SystemResetWarning,0828.1,5.02,000.00,030.9,027.8,000.0,039.0,031.4,33.3,0000.9,0009.83,0022.91,0007.77
2023-06-29 01:17:00,SystemResetWarning,0828.1,4.97,000.00,030.9,026.8,000.0,038.9,031.3,32.9,0000.4,0009.81,0023.14,0007.76
2023-06-29 01:18:00,SystemResetWarning,0828.1,5.02,000.00,030.9,025.5,000.0,038.8,031.1,31.4,0000.0,0009.79,0023.46,0007.75
2023-06-29 01:19:00,SystemResetWarning,0828.1,5.01,000.00,030.8,025.1,000.0,038.7,030.9,32.5,-000.3,0009.81,0023.77,0007.74
2023-06-29 01:20:00,SystemResetWarning,0828.1,5.00,000.00,030.7,025.3,000.0,038.7,030.7,33.3,-000.6,0009.78,0023.65,0007.72
2023-06-29 01:21:00,SystemResetWarning,0828.0,5.01,000.00,030.6,025.7,000.0,038.7,030.7,33.8,-000.7,0009.81,0023.54,0007.72
2023-06-29 01:22:00,SystemResetWarning,0828.0,5.00,000.00,030.5,026.2,000.0,038.7,030.8,34.1,-000.6,0009.73,0023.72,0007.68
2023-06-29 01:23:00,SystemResetWarning,0828.1,5.00,000.00,030.5,026.6,000.0,038.7,031.0,32.7,-000.3,0009.68,0024.92,0007.65
2023-06-29 01:24:00,SystemResetWarning,0828.1,5.00,000.00,030.5,027.0,000.0,038.7,031.0,32.8,-000.4,0009.67,0026.22,0007.64
2023-06-29 01:25:00,SystemResetWarning,0828.1,5.00,000.00,030.5,027.4,000.0,038.7,031.1,32.7,-000.4,0009.72,0027.61,0007.63
2023-06-29 01:26:00,SystemResetWarning,0828.1,4.99,000.00,030.5,027.7,000.0,038.7,031.2,33.5,-001.0,0009.76,0028.69,0007.62
2023-06-29 01:27:00,SystemResetWarning,0828.1,4.98,000.00,030.5,027.7,000.0,038.7,031.2,34.2,-000.9,0009.74,0027.53,0007.59
2023-06-29 01:28:00,SystemResetWarning,0828.1,5.01,000.00,030.5,026.3,000.0,038.6,031.1,34.4,-000.6,0009.69,0027.64,0007.57
2023-06-29 01:29:00,SystemResetWarning,0827.8,5.00,000.00,030.5,025.2,000.0,038.5,031.0,35.2,0000.2,0009.68,0028.02,0007.57
2023-06-29 01:30:00,SystemResetWarning,0827.8,5.03,000.00,030.6,025.1,000.0,038.4,030.8,36.0,0000.2,0009.71,0028.04,0007.58
2023-06-29 01:31:00,SystemResetWarning,0827.8,4.98,000.00,030.7,025.4,000.0,038.4,030.8,35.3,0000.2,0009.77,0028.87,0007.56
2023-06-29 01:32:00,SystemResetWarning,0827.8,5.03,000.00,030.9,025.9,000.0,038.5,031.0,34.6,-000.1,0009.71,0028.48,0007.53
2023-06-29 01:33:00,SystemResetWarning,0827.9,4.98,000.00,031.1,026.3,000.0,038.5,031.1,33.1,-000.2,0009.65,0028.08,0007.50
2023-06-29 01:34:00,SystemResetWarning,0827.8,4.99,000.00,031.2,026.8,000.0,038.6,031.2,32.3,-000.7,0009.62,0028.10,0007.46
2023-06-29 01:35:00,SystemResetWarning,0828.0,5.01,000.00,031.3,027.1,000.0,038.7,031.2,32.7,-001.0,0009.54,0026.73,0007.42
2023-06-29 01:36:00,SystemResetWarning,0828.1,5.01,000.00,031.4,027.5,000.0,038.8,031.3,32.8,-000.8,0009.42,0025.55,0007.42
2023-06-29 01:37:00,SystemResetWarning,0828.1,4.98,000.00,031.4,027.8,000.0,038.9,031.4,32.8,-000.1,0009.32,0025.44,0007.41
2023-06-29 01:38:00,SystemResetWarning,0828.1,5.00,000.00,031.5,027.3,000.0,038.9,031.4,33.3,-000.1,0009.33,0025.57,0007.40
2023-06-29 01:39:00,SystemResetWarning,0828.2,5.00,000.00,031.5,025.9,000.0,038.8,031.2,32.4,-000.4,0009.34,0026.57,0007.39
2023-06-29 01:40:00,SystemResetWarning,0828.2,5.02,000.00,031.4,025.2,000.0,038.8,031.0,31.3,-000.8,0009.34,0025.50,0007.38
2023-06-29 01:41:00,SystemResetWarning,0828.2,4.99,000.00,031.3,025.2,000.0,038.8,030.8,31.6,-000.9,0009.28,0025.08,0007.35
2023-06-29 01:42:00,SystemResetWarning,0828.2,5.00,000.00,031.1,025.6,000.0,038.9,030.7,31.6,-000.9,0009.21,0024.57,0007.35
2023-06-29 01:43:00,SystemResetWarning,0828.3,5.00,000.00,031.0,026.0,000.0,038.9,030.9,31.6,-000.5,0009.16,0024.79,0007.33
2023-06-29 01:44:00,SystemResetWarning,0828.4,5.01,000.00,031.0,026.5,000.0,039.0,031.0,32.0,-000.3,0009.17,0025.71,0007.34
2023-06-29 01:45:00,SystemResetWarning,0828.3,4.99,000.00,031.0,026.9,000.0,039.0,031.1,31.6,0000.5,0009.16,0024.94,0007.35
2023-06-29 01:46:00,SystemResetWarning,0828.3,4.99,000.00,031.0,027.3,000.0,039.0,031.2,32.5,0000.7,0009.16,0025.22,0007.36
2023-06-29 01:47:00,SystemResetWarning,0828.4,5.00,000.00,030.9,027.6,000.0,039.0,031.2,32.2,0000.4,0009.19,0025.87,0007.36
2023-06-29 01:48:00,SystemResetWarning,0828.4,5.00,000.00,030.9,027.8,000.0,039.0,031.3,32.5,0000.2,0009.25,0025.86,0007.37
2023-06-29 01:49:00,SystemResetWarning,0828.4,5.00,000.00,031.0,026.9,000.0,038.9,031.2,32.1,0000.2,0009.25,0025.21,0007.39
2023-06-29 01:50:00,SystemResetWarning,0828.4,5.00,000.00,030.9,025.5,000.0,038.8,031.0,32.4,-000.0,0009.24,0023.88,0007.41
2023-06-29 01:51:00,SystemResetWarning,0828.4,5.00,000.00,030.8,025.1,000.0,038.7,030.9,32.5,0000.1,0009.12,0024.97,0007.39
2023-06-29 01:52:00,SystemResetWarning,0828.4,5.02,000.00,030.6,025.3,000.0,038.7,030.7,32.4,0000.4,0009.09,0024.39,0007.38
2023-06-29 01:53:00,SystemResetWarning,0828.4,5.01,000.00,030.5,025.7,000.0,038.7,030.7,32.3,0000.2,0009.07,0023.63,0007.38
2023-06-29 01:54:00,SystemResetWarning,0828.4,5.00,000.00,030.5,026.2,000.0,038.7,030.8,32.4,0000.2,0009.12,0023.87,0007.37
2023-06-29 01:55:00,SystemResetWarning,0828.4,5.00,000.00,030.4,026.6,000.0,038.7,030.9,32.5,0000.0,0009.14,0023.98,0007.35
2023-06-29 01:56:00,SystemResetWarning,0828.4,5.00,000.00,030.4,027.0,000.0,038.7,031.0,32.5,-000.2,0009.15,0024.98,0007.36
2023-06-29 01:57:00,SystemResetWarning,0828.4,4.99,000.00,030.4,027.3,000.0,038.7,031.1,32.0,-000.6,0009.17,0024.92,0007.34
2023-06-29 01:58:00,SystemResetWarning,0828.4,4.99,000.00,030.4,027.6,000.0,038.7,031.1,32.0,-000.3,0009.15,0024.73,0007.32
2023-06-29 01:59:00,SystemResetWarning,0828.3,5.01,000.00,030.4,027.8,000.0,038.7,031.2,31.5,-000.6,0009.12,0024.36,0007.28
